Weather History for Chambery, France

Change the Weather History Date:

Wednesday, December 25, 2013

  Actual Average Record
Temperature  
Mean Temperature 49 °F -  
Max Temperature 57 °F 40 °F 59 °F (1999)
Min Temperature 41 °F 29 °F 19 °F (2003)
Degree Days  
Heating Degree Days 16    
Moisture  
Dew Point 40 °F    
Average Humidity 66    
Maximum Humidity 93    
Minimum Humidity 27    
Precipitation  
Precipitation 0.43 in - - ()
Sea Level Pressure  
Sea Level Pressure 29.37 in    
Wind  
Wind Speed 11 mph ()    
Max Wind Speed 26 mph    
Max Gust Speed 24 mph    
Visibility 6.7 miles    
Events Rain , Thunderstorm    
Averages and records for this station are not official NWS values.
T = Trace of Precipitation, MM = Missing Value Source: Averaged Metar Reports

Daily Weather History Graph

Daily Weather History Graph

Search for Another Location

Airport:

Trip Planner

Search our weather history database for the weather conditions in past years. The results will help you decide how hot, cold, wet, or windy it might be!

Date:

Astronomy

Dec. 25, 2013 Rise Set
Actual Time 8:15 AM CET 4:57 PM CET
Civil Twilight 7:41 AM CET 5:31 PM CET
Nautical Twilight 7:03 AM CET 6:09 PM CET
Astronomical Twilight 6:27 AM CET 6:45 PM CET
Moon 12:09 AM CET (12/25) 12:09 PM CET (12/25)
Length of Visible Light 9h 50m
Length of Day
8h 41m
Waning Gibbous, 51% of the Moon is Illuminated
Dec 25
Waning Gibbous
Dec 25
Last Quarter
Jan 1
New
Jan 8
First Quarter
Jan 16
Full

Hourly Weather History & Observations

Time (CET) Temp. Windchill Dew Point Humidity Pressure Visibility Wind Dir Wind Speed Gust Speed Precip Events Conditions
12:00 AM 59 °F - 34 °F 27% 29.45 in 37 mi South 17.3 mph - -   Clear
12:00 AM 59.0 °F - 33.8 °F 39% 29.44 in 6.2 mi South 17.3 mph - N/A   Unknown
12:30 AM 59.0 °F - 35.6 °F 42% 29.42 in 6.2 mi South 16.1 mph - N/A   Unknown
1:00 AM 62 °F - 36 °F 27% 29.41 in 37 mi SSW 15.0 mph - -   Clear
1:00 AM 60.8 °F - 35.6 °F 39% 29.42 in 6.2 mi SSW 15.0 mph - N/A   Unknown
1:30 AM 60.8 °F - 37.4 °F 42% 29.42 in 6.2 mi South 15.0 mph - N/A   Unknown
2:00 AM 60 °F - 37 °F 30% 29.40 in 37 mi South 12.7 mph - -   Clear
2:00 AM 59.0 °F - 37.4 °F 45% 29.39 in 6.2 mi South 12.7 mph 24.2 mph N/A   Unknown
2:30 AM 59.0 °F - 39.2 °F 48% 29.42 in 6.2 mi South 11.5 mph - N/A   Unknown
3:00 AM 58 °F - 38 °F 36% 29.40 in 37 mi South 8.1 mph - -   Clear
3:00 AM 57.2 °F - 37.4 °F 48% 29.39 in 6.2 mi South 8.1 mph - N/A   Unknown
3:30 AM 59.0 °F - 39.2 °F 48% 29.39 in 6.2 mi South 12.7 mph - N/A   Unknown
4:00 AM 58 °F - 40 °F 39% 29.38 in 37 mi SSE 8.1 mph - -   Clear
4:00 AM 59.0 °F - 39.2 °F 48% 29.39 in 6.2 mi SSE 8.1 mph - N/A   Overcast
4:30 AM 59.0 °F - 39.2 °F 48% 29.36 in 6.2 mi SSE 13.8 mph - N/A   Unknown
5:00 AM 60 °F - 38 °F 32% 29.35 in 37 mi SSE 26.5 mph - -   Clear
5:00 AM 60.8 °F - 37.4 °F 42% 29.36 in 6.2 mi SSE 26.5 mph - N/A   Unknown
5:30 AM 59.0 °F - 39.2 °F 48% 29.33 in 6.2 mi SSW 12.7 mph - N/A   Unknown
6:00 AM 61 °F - 37 °F 29% 29.37 in 25 mi SW 11.5 mph - -   Mostly Cloudy
6:00 AM 60.8 °F - 37.4 °F 42% 29.36 in 6.2 mi SW 11.5 mph - N/A   Mostly Cloudy
6:30 AM 59.0 °F - 39.2 °F 48% 29.36 in 6.2 mi South 11.5 mph - N/A   Mostly Cloudy
7:00 AM 57 °F - 39 °F 39% 29.35 in 25 mi South 13.8 mph - -   Overcast
7:00 AM 57.2 °F - 39.2 °F 51% 29.36 in 6.2 mi South 13.8 mph - N/A   Mostly Cloudy
7:30 AM 57.2 °F - 37.4 °F 48% 29.33 in 6.2 mi SSW 9.2 mph - N/A   Mostly Cloudy
8:00 AM 57 °F - 39 °F 39% 29.34 in 16 mi SSE 11.5 mph - -   Overcast
8:00 AM 57.2 °F - 39.2 °F 51% 29.33 in - SSE 11.5 mph - N/A   Clear
8:30 AM 55.4 °F - 39.2 °F 54% 29.33 in 6.2 mi SW 8.1 mph - N/A   Mostly Cloudy
9:00 AM 55.4 °F - 39.2 °F 54% 29.33 in 6.2 mi SSW 9.2 mph - N/A   Mostly Cloudy
9:30 AM 55.4 °F - 39.2 °F 54% 29.33 in 6.2 mi SSW 9.2 mph - N/A   Mostly Cloudy
10:00 AM 55 °F - 41 °F 49% 29.32 in 12 mi West 10.4 mph - -   Partly Cloudy
10:00 AM 55.4 °F - 41.0 °F 58% 29.33 in 6.2 mi West 10.4 mph - N/A   Mostly Cloudy
10:30 AM 55.4 °F - 41.0 °F 58% 29.33 in 6.2 mi WSW 9.2 mph - N/A   Mostly Cloudy
11:00 AM 54 °F - 43 °F 57% 29.36 in 16 mi South 9.2 mph - -   Overcast
11:00 AM 53.6 °F - 42.8 °F 67% 29.36 in 6.2 mi South 9.2 mph - N/A   Overcast
11:30 AM 55.4 °F - 44.6 °F 67% 29.36 in 6.2 mi Variable 4.6 mph - N/A Rain Light Rain
12:00 PM 51 °F - 41 °F 59% 29.44 in 5 mi SSW 8.1 mph - - Rain Rain
12:00 PM 51.8 °F - 41.0 °F 67% 29.42 in 5.0 mi Variable 8.1 mph - N/A Rain Rain
12:42 PM 46.4 °F 43.5 °F 41.0 °F 81% 29.44 in 5.0 mi ENE 5.8 mph - N/A Rain , Thunderstorm Thunderstorms and Rain
1:00 PM 46 °F - 42 °F 82% 29.44 in 4 mi North 5.8 mph - - Rain Heavy Rain
1:00 PM 46.4 °F 42.9 °F 41.0 °F 81% 29.42 in 4.3 mi NNE 6.9 mph - N/A Rain Rain
1:30 PM 46.4 °F - 42.8 °F 87% 29.42 in 5.6 mi Variable 2.3 mph - N/A Rain Rain
2:00 PM 45 °F - 43 °F 90% 29.44 in 3 mi NE 3.5 mph - - Rain Rain
2:00 PM 44.6 °F - 42.8 °F 93% 29.42 in 3.1 mi NE 2.3 mph - N/A Rain Rain
2:30 PM 44.6 °F 40.7 °F 42.8 °F 93% 29.42 in 3.1 mi NW 6.9 mph - N/A Rain Rain
3:00 PM 45 °F - 43 °F 91% 29.42 in 4 mi NW 3.5 mph - - Rain Rain
3:00 PM 44.6 °F 43.1 °F 42.8 °F 93% 29.42 in 3.7 mi WNW 3.5 mph - N/A Rain Rain
3:30 PM 44.6 °F 41.4 °F 42.8 °F 93% 29.39 in 5.6 mi NNW 5.8 mph - N/A Rain Rain
4:00 PM 45 °F - 43 °F 90% 29.42 in 6 mi WNW 4.6 mph - - Rain Rain
4:00 PM 44.6 °F 42.2 °F 42.8 °F 93% 29.39 in 5.6 mi WNW 4.6 mph - N/A Rain Rain
4:30 PM 44.6 °F 43.1 °F 42.8 °F 93% 29.39 in 6.2 mi NNE 3.5 mph - N/A Rain Light Rain
5:00 PM 44 °F - 43 °F 93% 29.40 in 12 mi NW 2.3 mph - - Rain Light Rain
5:00 PM 44.6 °F - 42.8 °F 93% 29.36 in 6.2 mi Variable 2.3 mph - N/A   Overcast
5:30 PM 42.8 °F 38.0 °F 41.0 °F 93% 29.36 in 6.2 mi North 8.1 mph - N/A   Overcast
6:00 PM 42 °F - 40 °F 88% 29.39 in 12 mi North 9.2 mph - -   Overcast
6:00 PM 42.8 °F 37.0 °F 39.2 °F 87% 29.36 in 6.2 mi North 10.4 mph - N/A   Overcast
6:30 PM 42.8 °F 38.6 °F 39.2 °F 87% 29.36 in 6.2 mi North 6.9 mph - N/A   Mostly Cloudy
7:00 PM 42 °F - 39 °F 85% 29.37 in 37 mi North 10.4 mph - -   Clear
7:00 PM 42.8 °F 37.0 °F 39.2 °F 87% 29.33 in 6.2 mi North 10.4 mph - N/A   Overcast
7:30 PM 42.8 °F 38.6 °F 39.2 °F 87% 29.33 in 6.2 mi NNE 6.9 mph - N/A   Overcast
8:00 PM 43 °F - 39 °F 79% 29.37 in 17 mi North 9.2 mph - - Rain Light Rain
8:00 PM 42.8 °F 37.5 °F 39.2 °F 87% 29.33 in 6.2 mi North 9.2 mph - N/A Rain Light Rain
8:30 PM 42.8 °F 38.0 °F 39.2 °F 87% 29.33 in 6.2 mi North 8.1 mph - N/A Rain Light Rain
9:00 PM 42 °F - 39 °F 84% 29.37 in 5 mi North 8.1 mph - - Rain Rain
9:00 PM 42.8 °F 38.0 °F 39.2 °F 87% 29.33 in 5.0 mi North 8.1 mph - N/A Rain Rain
9:30 PM 41.0 °F 35.2 °F 39.2 °F 93% 29.33 in 6.2 mi NNW 9.2 mph - N/A Rain Light Rain
10:00 PM 42 °F - 39 °F 83% 29.34 in 16 mi NW 11.5 mph - - Rain Light Rain
10:00 PM 42.8 °F 36.6 °F 39.2 °F 87% 29.30 in 6.2 mi NW 11.5 mph - N/A Rain Light Rain
10:30 PM 42.8 °F 36.2 °F 39.2 °F 87% 29.30 in 6.2 mi North 12.7 mph - N/A Rain Light Rain
11:00 PM 42 °F - 39 °F 84% 29.33 in 7 mi North 11.5 mph - - Rain Light Rain
11:00 PM 42.8 °F 36.6 °F 39.2 °F 87% 29.30 in 6.2 mi North 11.5 mph - N/A Rain Light Rain
11:30 PM 41.0 °F 34.3 °F 39.2 °F 93% 29.30 in 5.0 mi North 11.5 mph - N/A Rain Rain